QPF
0.00 0.00 0.00 0.00 0.00 0.00 0.00 0.00 0.00 0.00 0.00 0.00 0.00 0.00 0.00 0.00 0.00 0.00 0.00 0.00 0.00 0.00 0.00 0.00 0.00 0.00 0.00 0.00 0.01 0.01 0.03 0.04 0.04 0.04 0.04 0.03 0.01 0.01 0.00 0.00 0.00 0.00 0.00 0.00
0.00 0.00 0.00 0.00 0.00 0.00 0.00 0.00 0.00 0.00 0.00 0.00 0.00 0.00 0.00 0.00 0.00 0.00 0.00 0.00 0.00 0.00 0.00 0.00 0.00 0.00 0.00 0.00 0.01 0.02 0.03 0.04 0.04 0.03 0.03 0.02 0.01 0.01 0.00 0.00 0.00 0.00 0.00 0.00
0.00 0.00 0.00 0.00 0.00 0.00 0.00 0.00 0.00 0.00 0.00 0.00 0.00 0.00 0.00 0.00 0.00 0.00 0.00 0.00 0.00 0.00 0.00 0.00 0.00 0.00 0.00 0.00 0.01 0.01 0.02 0.02 0.02 0.02 0.01 0.01 0.01 0.00 0.00 0.00 0.00 0.00 0.00 0.00
0.00 0.00 0.00 0.00 0.00 0.00 0.00 0.00 0.00 0.00 0.00 0.00 0.00 0.00 0.00 0.00 0.00 0.00 0.00 0.00 0.00 0.00 0.00 0.00 0.00 0.00 0.00 0.00 0.00 0.00 0.01 0.02 0.01 0.01 0.01 0.01 0.01 0.00 0.00 0.00 0.00 0.00 0.00 0.00
0.00 0.00 0.00 0.00 0.00 0.00 0.00 0.00 0.00 0.00 0.00 0.00 0.00 0.00 0.00 0.00 0.00 0.00 0.00 0.00 0.00 0.00 0.00 0.00 0.00 0.00 0.00 0.00 0.00 0.00 0.00 0.01 0.00 0.01 0.01 0.01 0.00 0.00 0.00 0.00 0.00 0.00 0.00 0.00
0.00 0.00 0.00 0.00 0.00 0.00 0.00 0.00 0.00 0.00 0.00 0.00 0.00 0.00 0.00 0.00 0.00 0.00 0.00 0.00 0.00 0.00 0.00 0.00 0.00 0.00 0.00 0.00 0.00 0.00 0.00 0.00 0.00 0.00 0.00 0.00 0.00 0.00 0.00 0.00 0.00 0.00 0.00 0.00
0.00 0.00 0.00 0.00 0.00 0.00 0.00 0.00 0.00 0.00 0.00 0.00 0.00 0.00 0.00 0.00 0.00 0.00 0.00 0.00 0.00 0.00 0.00 0.00 0.00 0.00 0.00 0.00 0.00 0.00 0.00 0.00 0.00 0.00 0.00 0.00 0.00 0.00 0.00 0.00 0.00 0.00 0.00 0.00
0.00 0.00 0.00 0.00 0.00 0.00 0.00 0.00 0.00 0.00 0.00 0.00 0.00 0.00 0.00 0.00 0.00 0.00 0.00 0.00 0.00 0.00 0.00 0.00 0.00 0.00 0.00 0.00 0.00 0.00 0.00 0.00 0.00 0.00 0.00 0.00 0.00 0.00 0.00 0.00 0.00 0.00 0.00 0.00
0.00 0.00 0.00 0.00 0.00 0.00 0.00 0.00 0.00 0.00 0.00 0.00 0.00 0.00 0.00 0.00 0.00 0.00 0.00 0.00 0.00 0.00 0.00 0.00 0.00 0.00 0.00 0.00 0.00 0.00 0.00 0.00 0.00 0.00 0.00 0.00 0.00 0.01 0.00 0.00 0.00 0.00 0.00 0.00
0.00 0.00 0.00 0.00 0.00 0.00 0.00 0.00 0.00 0.00 0.00 0.00 0.00 0.00 0.00 0.00 0.00 0.00 0.00 0.00 0.00 0.00 0.00 0.00 0.00 0.00 0.00 0.00 0.00 0.00 0.00 0.00 0.00 0.00 0.00 0.00 0.00 0.00 0.00 0.00 0.00 0.00 0.00 0.00
0.00 0.00 0.00 0.00 0.00 0.00 0.00 0.00 0.00 0.00 0.00 0.00 0.00 0.00 0.00 0.00 0.00 0.00 0.00 0.00 0.00 0.00 0.00 0.00 0.00 0.00 0.00 0.00 0.00 0.00 0.00 0.00 0.00 0.00 0.00 0.00 0.00 0.00 0.00 0.00 0.00 0.00 0.00 0.00
0.00 0.00 0.00 0.00 0.00 0.00 0.00 0.00 0.00 0.00 0.00 0.00 0.00 0.00 0.00 0.00 0.00 0.00 0.00 0.00 0.00 0.00 0.00 0.00 0.00 0.00 0.00 0.00 0.00 0.00 0.00 0.00 0.00 0.00 0.00 0.00 0.00 0.00 0.00 0.00 0.00 0.00 0.00 0.00
0.00 0.00 0.00 0.00 0.00 0.00 0.00 0.00 0.00 0.00 0.00 0.00 0.00 0.00 0.00 0.00 0.00 0.00 0.00 0.00 0.00 0.00 0.00 0.00 0.00 0.00 0.00 0.00 0.00 0.00 0.00 0.00 0.00 0.00 0.00 0.00 0.00 0.00 0.00 0.00 0.00 0.00 0.00 0.00
0.00 0.00 0.00 0.00 0.00 0.00 0.00 0.00 0.00 0.00 0.00 0.00 0.00 0.00 0.00 0.00 0.00 0.00 0.00 0.00 0.00 0.00 0.00 0.00 0.00 0.00 0.00 0.00 0.00 0.00 0.00 0.00 0.00 0.00 0.00 0.00 0.00 0.00 0.01 0.01 0.00 0.00 0.00 0.00
0.00 0.00 0.00 0.00 0.00 0.00 0.00 0.00 0.00 0.00 0.00 0.00 0.00 0.00 0.00 0.00 0.00 0.00 0.00 0.00 0.00 0.00 0.00 0.00 0.00 0.00 0.00 0.00 0.00 0.00 0.00 0.00 0.00 0.00 0.00 0.00 0.00 0.00 0.00 0.01 0.01 0.01 0.01 0.00
0.00 0.00 0.00 0.00 0.00 0.00 0.00 0.00 0.00 0.00 0.00 0.00 0.00 0.00 0.00 0.00 0.00 0.00 0.00 0.00 0.00 0.00 0.00 0.00 0.00 0.00 0.00 0.00 0.00 0.00 0.00 0.00 0.00 0.00 0.00 0.00 0.00 0.00 0.00 0.00 0.01 0.01 0.01 0.00
0.00 0.00 0.00 0.00 0.00 0.00 0.00 0.00 0.00 0.00 0.00 0.00 0.00 0.00 0.00 0.00 0.00 0.00 0.00 0.00 0.00 0.00 0.00 0.00 0.00 0.00 0.00 0.00 0.00 0.00 0.00 0.00 0.00 0.00 0.00 0.00 0.00 0.00 0.00 0.00 0.00 0.00 0.01 0.01
0.00 0.00 0.00 0.00 0.00 0.00 0.00 0.00 0.00 0.00 0.00 0.00 0.00 0.00 0.00 0.00 0.00 0.00 0.00 0.00 0.00 0.00 0.00 0.00 0.00 0.00 0.00 0.00 0.00 0.00 0.00 0.00 0.00 0.00 0.00 0.00 0.00 0.00 0.00 0.00 0.00 0.00 0.00 0.00
0.00 0.00 0.00 0.00 0.00 0.00 0.00 0.00 0.00 0.00 0.00 0.00 0.00 0.00 0.00 0.00 0.00 0.00 0.00 0.00 0.00 0.00 0.00 0.00 0.00 0.00 0.00 0.00 0.00 0.00 0.00 0.00 0.00 0.00 0.00 0.00 0.00 0.00 0.00 0.00 0.00 0.00 0.00 0.00
0.00 0.00 0.00 0.00 0.00 0.00 0.00 0.00 0.00 0.00 0.00 0.00 0.00 0.00 0.00 0.00 0.00 0.00 0.00 0.00 0.00 0.00 0.00 0.00 0.00 0.00 0.00 0.00 0.00 0.00 0.00 0.00 0.00 0.00 0.00 0.00 0.00 0.00 0.00 0.00 0.00 0.00 0.00 0.00
0.00 0.00 0.00 0.00 0.00 0.00 0.00 0.00 0.00 0.00 0.00 0.00 0.00 0.00 0.00 0.00 0.00 0.00 0.00 0.00 0.00 0.00 0.00 0.00 0.00 0.00 0.00 0.00 0.00 0.00 0.00 0.00 0.00 0.00 0.00 0.00 0.00 0.00 0.00 0.00 0.00 0.00 0.00 0.00
0.00 0.00 0.00 0.00 0.00 0.00 0.00 0.00 0.00 0.00 0.00 0.00 0.00 0.00 0.00 0.00 0.00 0.00 0.00 0.00 0.00 0.00 0.00 0.00 0.00 0.00 0.00 0.00 0.00 0.00 0.00 0.00 0.00 0.00 0.00 0.00 0.00 0.00 0.00 0.00 0.00 0.00 0.00 0.00
0.00 0.00 0.00 0.00 0.00 0.00 0.00 0.00 0.00 0.00 0.00 0.00 0.00 0.00 0.00 0.00 0.00 0.00 0.00 0.00 0.00 0.00 0.00 0.00 0.00 0.00 0.00 0.00 0.00 0.00 0.00 0.00 0.00 0.00 0.00 0.00 0.00 0.00 0.00 0.00 0.00 0.00 0.00 0.00
0.00 0.00 0.00 0.00 0.00 0.00 0.00 0.00 0.00 0.00 0.00 0.00 0.00 0.00 0.00 0.00 0.00 0.00 0.00 0.00 0.00 0.00 0.00 0.00 0.00 0.00 0.00 0.00 0.00 0.00 0.00 0.00 0.00 0.00 0.00 0.00 0.00 0.00 0.00 0.00 0.00 0.00 0.00 0.00
0.00 0.00 0.00 0.00 0.00 0.00 0.00 0.00 0.00 0.00 0.00 0.00 0.00 0.00 0.00 0.00 0.01 0.00 0.00 0.00 0.01 0.01 0.01 0.01 0.01 0.01 0.01 0.01 0.01 0.01 0.01 0.01 0.01 0.00 0.00 0.00 0.00 0.00 0.00 0.00 0.00 0.00 0.00 0.00
0.00 0.00 0.00 0.00 0.00 0.00 0.00 0.00 0.01 0.01 0.01 0.01 0.01 0.01 0.01 0.01 0.01 0.01 0.01 0.01 0.01 0.01 0.01 0.01 0.02 0.02 0.02 0.03 0.03 0.02 0.02 0.01 0.01 0.01 0.01 0.00 0.00 0.00 0.00 0.00 0.00 0.00 0.00 0.00
0.00 0.00 0.00 0.00 0.00 0.00 0.01 0.01 0.01 0.01 0.01 0.01 0.01 0.01 0.01 0.01 0.01 0.01 0.01 0.01 0.01 0.01 0.01 0.01 0.02 0.02 0.02 0.02 0.02 0.02 0.02 0.02 0.02 0.01 0.01 0.01 0.01 0.01 0.01 0.01 0.01 0.01 0.01 0.00
MSLP
1015.78 1016.17 1016.53 1016.80 1016.95 1016.94 1016.76 1016.39 1015.85 1015.18 1014.43 1013.66 1012.95 1012.35 1011.91 1011.67 1011.63 1011.77 1012.08 1012.50 1013.01 1013.55 1014.11 1014.67 1015.21 1015.75 1016.28 1016.81 1017.34 1017.87 1018.38 1018.86 1019.31 1019.70 1020.04 1020.33 1020.59 1020.82 1021.04 1021.25 1021.46 1021.67 1021.87 1022.04
1015.15 1015.46 1015.74 1015.96 1016.09 1016.09 1015.96 1015.67 1015.24 1014.68 1014.03 1013.36 1012.70 1012.12 1011.66 1011.35 1011.21 1011.24 1011.42 1011.73 1012.13 1012.61 1013.13 1013.68 1014.25 1014.83 1015.41 1016.01 1016.61 1017.19 1017.76 1018.30 1018.79 1019.24 1019.63 1019.97 1020.28 1020.56 1020.83 1021.08 1021.33 1021.57 1021.78 1021.97
1014.76 1015.00 1015.23 1015.41 1015.53 1015.55 1015.46 1015.24 1014.89 1014.43 1013.87 1013.27 1012.65 1012.08 1011.59 1011.21 1010.97 1010.88 1010.93 1011.11 1011.41 1011.79 1012.26 1012.77 1013.34 1013.93 1014.55 1015.19 1015.83 1016.46 1017.07 1017.65 1018.19 1018.68 1019.11 1019.50 1019.85 1020.18 1020.48 1020.77 1021.05 1021.31 1021.55 1021.75
1014.68 1014.90 1015.10 1015.27 1015.38 1015.42 1015.36 1015.19 1014.90 1014.50 1014.00 1013.44 1012.85 1012.27 1011.74 1011.29 1010.95 1010.73 1010.66 1010.71 1010.88 1011.17 1011.55 1012.01 1012.54 1013.12 1013.74 1014.39 1015.05 1015.70 1016.34 1016.95 1017.51 1018.03 1018.50 1018.92 1019.30 1019.65 1019.98 1020.29 1020.59 1020.87 1021.12 1021.34
1014.95 1015.18 1015.39 1015.57 1015.68 1015.73 1015.68 1015.53 1015.27 1014.89 1014.42 1013.88 1013.28 1012.68 1012.10 1011.57 1011.14 1010.81 1010.60 1010.52 1010.57 1010.74 1011.02 1011.40 1011.87 1012.40 1012.99 1013.62 1014.28 1014.94 1015.58 1016.20 1016.78 1017.31 1017.79 1018.23 1018.63 1019.00 1019.34 1019.66 1019.96 1020.25 1020.51 1020.75
1015.55 1015.82 1016.06 1016.25 1016.37 1016.41 1016.36 1016.20 1015.93 1015.56 1015.08 1014.52 1013.90 1013.26 1012.62 1012.03 1011.50 1011.06 1010.73 1010.52 1010.44 1010.48 1010.64 1010.92 1011.29 1011.76 1012.29 1012.88 1013.50 1014.14 1014.77 1015.39 1015.97 1016.51 1017.00 1017.44 1017.85 1018.21 1018.56 1018.88 1019.19 1019.48 1019.75 1020.01
1016.40 1016.73 1017.00 1017.21 1017.33 1017.36 1017.28 1017.09 1016.79 1016.38 1015.87 1015.28 1014.62 1013.94 1013.24 1012.58 1011.96 1011.42 1010.97 1010.64 1010.42 1010.33 1010.36 1010.51 1010.78 1011.14 1011.59 1012.12 1012.69 1013.29 1013.90 1014.50 1015.08 1015.61 1016.11 1016.56 1016.96 1017.33 1017.67 1018.00 1018.31 1018.61 1018.90 1019.17
1017.39 1017.78 1018.08 1018.29 1018.40 1018.40 1018.28 1018.05 1017.70 1017.24 1016.69 1016.06 1015.36 1014.63 1013.88 1013.15 1012.46 1011.83 1011.28 1010.82 1010.47 1010.24 1010.13 1010.15 1010.28 1010.53 1010.88 1011.31 1011.82 1012.37 1012.95 1013.52 1014.09 1014.62 1015.12 1015.57 1015.99 1016.36 1016.71 1017.04 1017.36 1017.68 1017.99 1018.29
1018.43 1018.84 1019.16 1019.36 1019.43 1019.39 1019.22 1018.93 1018.52 1018.02 1017.42 1016.75 1016.02 1015.26 1014.48 1013.70 1012.95 1012.24 1011.59 1011.02 1010.55 1010.18 1009.93 1009.80 1009.79 1009.90 1010.13 1010.47 1010.89 1011.37 1011.90 1012.45 1013.00 1013.53 1014.03 1014.50 1014.93 1015.32 1015.69 1016.04 1016.39 1016.73 1017.06 1017.40
1019.41 1019.82 1020.11 1020.27 1020.30 1020.20 1019.96 1019.62 1019.17 1018.62 1017.99 1017.30 1016.55 1015.77 1014.97 1014.17 1013.38 1012.61 1011.89 1011.23 1010.64 1010.14 1009.75 1009.47 1009.31 1009.28 1009.37 1009.59 1009.91 1010.31 1010.78 1011.29 1011.82 1012.34 1012.85 1013.33 1013.78 1014.21 1014.61 1014.99 1015.37 1015.75 1016.13 1016.51
1020.29 1020.65 1020.88 1020.97 1020.93 1020.76 1020.46 1020.06 1019.57 1019.00 1018.36 1017.66 1016.92 1016.15 1015.35 1014.55 1013.74 1012.94 1012.16 1011.42 1010.73 1010.12 1009.59 1009.17 1008.86 1008.68 1008.63 1008.72 1008.92 1009.22 1009.61 1010.06 1010.55 1011.06 1011.56 1012.06 1012.54 1013.00 1013.44 1013.87 1014.30 1014.73 1015.16 1015.59
1021.02 1021.29 1021.43 1021.43 1021.30 1021.05 1020.70 1020.26 1019.74 1019.15 1018.52 1017.84 1017.12 1016.38 1015.61 1014.82 1014.01 1013.20 1012.39 1011.59 1010.83 1010.11 1009.47 1008.91 1008.46 1008.14 1007.94 1007.88 1007.95 1008.14 1008.42 1008.79 1009.22 1009.69 1010.18 1010.68 1011.18 1011.68 1012.17 1012.65 1013.14 1013.63 1014.11 1014.59
1021.59 1021.75 1021.78 1021.67 1021.45 1021.13 1020.72 1020.25 1019.71 1019.13 1018.51 1017.86 1017.19 1016.48 1015.75 1014.99 1014.20 1013.39 1012.56 1011.72 1010.90 1010.11 1009.37 1008.70 1008.12 1007.65 1007.31 1007.10 1007.03 1007.08 1007.24 1007.51 1007.85 1008.26 1008.71 1009.20 1009.70 1010.23 1010.76 1011.30 1011.85 1012.40 1012.95 1013.49
1022.03 1022.06 1021.96 1021.75 1021.44 1021.05 1020.59 1020.09 1019.54 1018.97 1018.38 1017.77 1017.13 1016.46 1015.77 1015.04 1014.27 1013.47 1012.64 1011.78 1010.93 1010.08 1009.26 1008.50 1007.81 1007.22 1006.74 1006.39 1006.16 1006.07 1006.09 1006.22 1006.46 1006.78 1007.17 1007.62 1008.12 1008.65 1009.22 1009.81 1010.42 1011.03 1011.65 1012.24
1022.31 1022.22 1022.01 1021.70 1021.31 1020.86 1020.37 1019.84 1019.29 1018.73 1018.16 1017.57 1016.96 1016.33 1015.66 1014.96 1014.21 1013.42 1012.59 1011.73 1010.85 1009.97 1009.10 1008.27 1007.50 1006.81 1006.21 1005.72 1005.35 1005.10 1004.98 1004.97 1005.07 1005.28 1005.59 1005.98 1006.45 1006.98 1007.56 1008.19 1008.86 1009.53 1010.21 1010.87
1022.46 1022.26 1021.95 1021.57 1021.11 1020.62 1020.09 1019.55 1019.00 1018.45 1017.88 1017.30 1016.71 1016.09 1015.43 1014.73 1013.99 1013.20 1012.38 1011.52 1010.63 1009.73 1008.84 1007.97 1007.15 1006.38 1005.68 1005.08 1004.58 1004.19 1003.91 1003.76 1003.73 1003.81 1004.02 1004.33 1004.75 1005.26 1005.85 1006.51 1007.21 1007.95 1008.69 1009.41
1022.45 1022.18 1021.81 1021.36 1020.87 1020.34 1019.79 1019.24 1018.69 1018.13 1017.56 1016.98 1016.37 1015.74 1015.07 1014.36 1013.61 1012.82 1011.99 1011.13 1010.25 1009.35 1008.45 1007.57 1006.71 1005.89 1005.13 1004.44 1003.84 1003.32 1002.92 1002.63 1002.46 1002.42 1002.52 1002.75 1003.10 1003.58 1004.16 1004.83 1005.57 1006.34 1007.14 1007.92
1022.30 1021.98 1021.57 1021.09 1020.58 1020.04 1019.48 1018.92 1018.36 1017.79 1017.20 1016.60 1015.97 1015.30 1014.60 1013.87 1013.09 1012.28 1011.44 1010.58 1009.70 1008.82 1007.93 1007.05 1006.19 1005.36 1004.56 1003.82 1003.13 1002.53 1002.01 1001.60 1001.32 1001.16 1001.16 1001.30 1001.58 1002.01 1002.57 1003.24 1003.99 1004.80 1005.63 1006.46
1022.01 1021.67 1021.24 1020.76 1020.24 1019.70 1019.15 1018.59 1018.01 1017.43 1016.82 1016.19 1015.52 1014.81 1014.07 1013.28 1012.47 1011.64 1010.78 1009.91 1009.04 1008.17 1007.31 1006.45 1005.61 1004.78 1003.98 1003.21 1002.48 1001.82 1001.23 1000.73 1000.35 1000.10 1000.00 1000.05 1000.27 1000.65 1001.17 1001.82 1002.57 1003.39 1004.25 1005.11
1021.61 1021.26 1020.84 1020.37 1019.86 1019.33 1018.79 1018.23 1017.66 1017.06 1016.43 1015.76 1015.05 1014.29 1013.50 1012.67 1011.82 1010.95 1010.07 1009.19 1008.33 1007.47 1006.63 1005.81 1004.99 1004.19 1003.41 1002.64 1001.90 1001.21 1000.57 1000.02 999.57 999.25 999.07 999.06 999.21 999.53 1000.01 1000.63 1001.36 1002.17 1003.03 1003.89
1021.14 1020.79 1020.38 1019.93 1019.44 1018.93 1018.40 1017.86 1017.28 1016.68 1016.03 1015.33 1014.59 1013.79 1012.95 1012.07 1011.18 1010.27 1009.37 1008.48 1007.61 1006.77 1005.95 1005.16 1004.38 1003.61 1002.86 1002.12 1001.39 1000.70 1000.05 999.47 998.99 998.62 998.39 998.32 998.42 998.69 999.11 999.69 1000.38 1001.16 1001.99 1002.84
1020.62 1020.29 1019.89 1019.45 1018.99 1018.50 1017.99 1017.46 1016.90 1016.29 1015.63 1014.92 1014.14 1013.31 1012.44 1011.52 1010.59 1009.65 1008.72 1007.81 1006.94 1006.10 1005.30 1004.53 1003.78 1003.05 1002.33 1001.62 1000.92 1000.25 999.62 999.05 998.56 998.17 997.92 997.81 997.87 998.09 998.47 998.99 999.63 1000.36 1001.15 1001.96
1020.10 1019.77 1019.38 1018.96 1018.51 1018.05 1017.56 1017.05 1016.49 1015.89 1015.23 1014.51 1013.72 1012.86 1011.95 1011.01 1010.04 1009.07 1008.11 1007.19 1006.30 1005.46 1004.66 1003.90 1003.17 1002.47 1001.79 1001.12 1000.46 999.83 999.23 998.69 998.21 997.84 997.59 997.47 997.50 997.69 998.02 998.50 999.08 999.76 1000.49 1001.25
1019.59 1019.25 1018.87 1018.47 1018.03 1017.58 1017.11 1016.61 1016.07 1015.47 1014.81 1014.08 1013.28 1012.41 1011.48 1010.51 1009.52 1008.52 1007.53 1006.58 1005.67 1004.81 1004.00 1003.24 1002.53 1001.84 1001.19 1000.56 999.95 999.36 998.81 998.31 997.89 997.55 997.32 997.22 997.25 997.42 997.73 998.16 998.69 999.31 999.98 1000.68
1019.10 1018.76 1018.38 1017.98 1017.55 1017.11 1016.65 1016.15 1015.61 1015.01 1014.35 1013.62 1012.81 1011.92 1010.98 1009.99 1008.97 1007.94 1006.93 1005.94 1005.00 1004.12 1003.29 1002.52 1001.80 1001.13 1000.49 999.89 999.32 998.79 998.30 997.87 997.50 997.22 997.04 996.98 997.03 997.21 997.51 997.92 998.42 998.99 999.60 1000.24
1018.64 1018.29 1017.91 1017.50 1017.07 1016.63 1016.16 1015.66 1015.11 1014.51 1013.84 1013.09 1012.27 1011.37 1010.41 1009.40 1008.36 1007.30 1006.26 1005.25 1004.28 1003.36 1002.50 1001.71 1000.98 1000.30 999.67 999.10 998.57 998.09 997.66 997.30 997.01 996.81 996.70 996.69 996.79 997.01 997.32 997.72 998.20 998.74 999.32 999.92
1018.20 1017.84 1017.45 1017.04 1016.61 1016.15 1015.67 1015.15 1014.59 1013.96 1013.27 1012.51 1011.66 1010.75 1009.77 1008.74 1007.68 1006.60 1005.53 1004.49 1003.49 1002.54 1001.65 1000.83 1000.08 999.39 998.77 998.21 997.72 997.28 996.92 996.63 996.42 996.30 996.27 996.34 996.51 996.77 997.12 997.55 998.03 998.56 999.11 999.67
Thickness
5723 5723 5721 5719 5718 5716 5715 5721 5719 5727 5730 5740 5745 5745 5743 5740 5736 5732 5729 5726 5723 5720 5718 5715 5712 5710 5708 5705 5702 5700 5697 5696 5695 5694 5691 5689 5687 5685 5683 5681 5680 5678 5676 5674
5717 5721 5720 5717 5721 5721 5719 5722 5724 5727 5731 5749 5751 5748 5743 5740 5735 5731 5729 5727 5725 5722 5719 5716 5713 5711 5708 5704 5702 5700 5697 5695 5692 5690 5688 5685 5683 5681 5679 5676 5675 5673 5671 5669
5714 5718 5715 5713 5728 5727 5725 5730 5730 5727 5739 5748 5742 5741 5742 5741 5737 5735 5732 5729 5726 5723 5720 5718 5716 5713 5707 5705 5702 5699 5696 5693 5689 5687 5684 5682 5679 5677 5674 5672 5670 5668 5666 5664
5712 5710 5697 5729 5743 5738 5732 5735 5739 5741 5745 5745 5744 5744 5745 5745 5741 5737 5734 5731 5727 5724 5721 5718 5716 5711 5708 5704 5700 5697 5694 5690 5687 5684 5681 5678 5675 5672 5670 5669 5666 5662 5660 5658
5708 5703 5711 5728 5736 5733 5728 5731 5743 5741 5742 5742 5741 5739 5740 5744 5743 5741 5737 5734 5730 5726 5722 5718 5714 5710 5706 5702 5698 5694 5691 5688 5685 5681 5677 5674 5671 5668 5666 5663 5661 5658 5655 5652
5703 5696 5698 5723 5736 5738 5731 5725 5744 5743 5740 5738 5734 5731 5740 5744 5740 5738 5735 5732 5728 5724 5721 5716 5712 5708 5703 5700 5696 5692 5688 5685 5682 5678 5674 5670 5667 5664 5661 5658 5655 5652 5649 5647
5701 5699 5712 5732 5731 5729 5714 5725 5741 5741 5740 5736 5735 5742 5744 5741 5737 5735 5731 5727 5723 5720 5716 5712 5709 5704 5700 5697 5693 5690 5685 5681 5678 5674 5670 5666 5662 5659 5656 5652 5649 5647 5644 5641
5701 5695 5704 5725 5723 5722 5729 5740 5739 5738 5738 5736 5738 5738 5737 5735 5732 5729 5725 5721 5718 5714 5710 5707 5704 5700 5697 5693 5690 5685 5680 5675 5672 5669 5665 5661 5656 5653 5650 5647 5643 5640 5638 5635
5709 5712 5720 5721 5724 5728 5729 5731 5733 5734 5734 5733 5731 5730 5730 5728 5726 5724 5720 5716 5713 5709 5705 5702 5699 5696 5692 5688 5684 5679 5674 5670 5667 5664 5659 5655 5651 5647 5644 5640 5638 5635 5632 5629
5705 5712 5716 5717 5719 5721 5723 5725 5728 5729 5729 5728 5726 5726 5724 5723 5721 5718 5715 5712 5708 5704 5700 5697 5694 5691 5688 5684 5679 5674 5670 5666 5662 5658 5654 5651 5646 5642 5638 5635 5632 5629 5625 5622
5699 5708 5710 5713 5714 5717 5719 5721 5722 5724 5724 5723 5722 5721 5720 5718 5716 5713 5710 5707 5703 5701 5697 5693 5689 5685 5682 5678 5674 5670 5666 5661 5657 5653 5649 5644 5640 5636 5632 5629 5625 5620 5618 5614
5696 5705 5705 5708 5712 5712 5712 5714 5716 5717 5717 5718 5717 5715 5714 5713 5710 5707 5704 5702 5698 5695 5691 5689 5685 5680 5676 5672 5668 5665 5661 5656 5651 5647 5641 5637 5633 5629 5623 5619 5614 5609 5605 5601
5696 5697 5698 5701 5703 5705 5706 5709 5710 5711 5711 5710 5710 5709 5707 5705 5703 5700 5698 5695 5692 5689 5686 5683 5679 5674 5670 5665 5661 5658 5654 5650 5645 5640 5636 5631 5627 5623 5619 5613 5606 5602 5597 5593
5686 5686 5688 5692 5694 5697 5698 5700 5702 5703 5704 5703 5702 5701 5699 5697 5695 5692 5690 5689 5686 5683 5679 5676 5672 5668 5664 5658 5654 5650 5647 5642 5637 5632 5629 5625 5621 5617 5613 5608 5604 5600 5593 5586
5678 5679 5681 5684 5686 5687 5689 5690 5691 5692 5693 5692 5691 5690 5689 5687 5685 5684 5683 5681 5678 5675 5671 5668 5664 5660 5656 5651 5647 5643 5638 5634 5629 5625 5621 5617 5613 5609 5605 5600 5596 5592 5588 5582
5669 5671 5672 5673 5675 5677 5678 5680 5681 5681 5682 5681 5681 5680 5679 5678 5676 5674 5672 5671 5668 5665 5663 5659 5656 5652 5648 5643 5639 5634 5630 5624 5619 5616 5612 5608 5604 5600 5596 5592 5587 5583 5579 5574
5658 5661 5663 5664 5666 5668 5669 5670 5671 5672 5672 5671 5670 5669 5668 5666 5665 5663 5661 5659 5658 5656 5653 5650 5647 5643 5638 5634 5630 5626 5622 5616 5608 5605 5603 5599 5595 5591 5586 5582 5578 5574 5569 5564
5651 5654 5656 5657 5658 5658 5659 5660 5661 5661 5661 5660 5659 5658 5657 5656 5654 5652 5650 5648 5646 5644 5642 5640 5636 5631 5627 5624 5620 5616 5612 5608 5602 5598 5594 5589 5585 5580 5576 5572 5568 5563 5559 5553
5640 5642 5644 5645 5646 5647 5648 5649 5649 5650 5649 5648 5647 5646 5646 5645 5643 5641 5639 5637 5634 5632 5630 5628 5622 5619 5616 5612 5607 5603 5601 5597 5592 5588 5583 5577 5572 5570 5566 5561 5557 5553 5548 5542
5628 5630 5632 5633 5634 5635 5636 5637 5637 5637 5637 5636 5635 5633 5632 5631 5630 5628 5625 5624 5622 5619 5617 5613 5610 5607 5604 5600 5594 5592 5589 5585 5581 5577 5572 5567 5563 5559 5555 5550 5546 5541 5536 5530
5615 5617 5619 5620 5621 5622 5624 5624 5624 5623 5623 5622 5621 5620 5619 5617 5615 5613 5611 5609 5607 5603 5600 5596 5595 5593 5590 5586 5580 5579 5576 5572 5568 5564 5560 5555 5551 5547 5543 5539 5534 5529 5523 5518
5603 5605 5606 5607 5608 5610 5611 5612 5611 5610 5609 5608 5606 5605 5603 5601 5600 5598 5596 5594 5591 5585 5584 5582 5580 5577 5573 5569 5567 5565 5562 5558 5554 5550 5546 5542 5538 5534 5531 5526 5521 5516 5510 5505
5589 5591 5592 5593 5594 5596 5596 5596 5596 5595 5594 5593 5591 5590 5588 5586 5584 5582 5580 5578 5575 5571 5569 5567 5563 5559 5556 5554 5553 5550 5547 5543 5540 5536 5533 5528 5525 5521 5517 5512 5507 5502 5496 5492
5576 5577 5577 5578 5579 5580 5580 5580 5580 5579 5578 5576 5575 5574 5572 5570 5569 5567 5565 5561 5558 5555 5554 5550 5546 5544 5541 5540 5538 5535 5532 5529 5525 5522 5519 5515 5511 5506 5502 5498 5493 5489 5484 5479
5560 5561 5562 5562 5563 5564 5564 5564 5564 5563 5562 5561 5560 5558 5557 5555 5553 5551 5549 5545 5542 5539 5538 5535 5531 5528 5526 5525 5522 5519 5516 5513 5509 5506 5502 5499 5496 5492 5488 5484 5479 5475 5471 5467
5545 5546 5546 5547 5547 5546 5547 5547 5547 5546 5546 5544 5543 5542 5540 5538 5535 5534 5531 5529 5526 5523 5521 5519 5516 5513 5511 5509 5506 5503 5500 5498 5495 5491 5488 5485 5482 5478 5474 5470 5466 5462 5458 5454
5530 5530 5531 5531 5531 5531 5531 5531 5531 5530 5529 5528 5527 5525 5523 5521 5519 5517 5515 5513 5511 5508 5506 5503 5501 5498 5495 5492 5489 5487 5485 5482 5480 5477 5474 5471 5467 5464 5460 5456 5453 5449 5445 5442